Location: Skalnate Pleso
(49.1889°N, 20.2450°E)
Time: 00:52:02
(UTC+01:00)

Cosmos 1151 Rocket - Pass Details

Date: 19 November 2019
Orbit: 592 x 616 km, 82.5° (Epoch: 14 December)

Event Time Altitude Azimuth Distance (km) Brightness Sun altitude
Exits shadow 04:12:40 14° 5° (N) 1,761 5.4 -26.1°
Maximum altitude 04:16:16 43° 74° (ENE) 863 4.1 -25.6°
Drops below altitude 10° 04:20:24 10° 147° (SSE) 1,958 6.0 -24.9°
Sets 04:22:41 0° 154° (SSE) 2,853 6.8 -24.5°
